Weather History for Lander, WY

Change the Weather History Date:

Tuesday, April 10, 2012

  Actual Average Record
Temperature  
Mean Temperature 54 °F 42 °F  
Max Temperature 73 °F 55 °F 73 °F (1985)
Min Temperature 34 °F 30 °F 5 °F (2013)
Degree Days  
Heating Degree Days 11 23  
Month to date heating degree days 186 239  
Since 1 July heating degree days 6165 6858  
Cooling Degree Days 0 0  
Month to date cooling degree days 0 0  
Year to date cooling degree days 0 0  
Growing Degree Days 4 (Base 50)    
Moisture  
Dew Point 22 °F    
Average Humidity 35    
Maximum Humidity 54    
Minimum Humidity 15    
Precipitation  
Precipitation 0.00 in 0.06 in 1.42 in (1943)
Month to date precipitation 0.42 0.53  
Year to date precipitation 2.09 2.68  
Snow  
Snow 0.00 in 0.60 in - ()
Month to date snowfall 1.1 5.9  
Since 1 July snowfall 60.3 75.6  
Snow Depth 0.00 in    
Sea Level Pressure  
Sea Level Pressure 29.95 in    
Wind  
Wind Speed 7 mph (WNW)    
Max Wind Speed 13 mph    
Max Gust Speed -    
Visibility 10 miles    
Events      
T = Trace of Precipitation, MM = Missing Value Source: NWS Daily Summary

Daily Weather History Graph

Daily Weather History Graph

Search for Another Location

Airport:

Trip Planner

Search our weather history database for the weather conditions in past years. The results will help you decide how hot, cold, wet, or windy it might be!

Date:

Astronomy

Apr. 10, 2012 Rise Set
Actual Time 6:40 AM MDT 7:52 PM MDT
Civil Twilight 6:11 AM MDT 8:21 PM MDT
Nautical Twilight 5:36 AM MDT 8:56 PM MDT
Astronomical Twilight 5:00 AM MDT 9:33 PM MDT
Moon No Moon Rise 9:23 AM MDT (4/10)
Length of Visible Light 14h 09m
Length of Day
13h 11m
Waning Gibbous, 79% of the Moon is Illuminated
Apr 10
Waning Gibbous
Apr 13
Last Quarter
Apr 21
New
Apr 29
First Quarter
May 5
Full

Hourly Weather History & Observations

Time (MDT) Temp. Windchill Dew Point Humidity Pressure Visibility Wind Dir Wind Speed Gust Speed Precip Events Conditions
12:53 AM 44.1 °F 39.0 °F 21.0 °F 40% 30.06 in 10.0 mi West 9.2 mph - N/A   Clear
1:53 AM 43.0 °F 37.2 °F 21.0 °F 42% 30.04 in 10.0 mi West 10.4 mph - N/A   Clear
2:53 AM 42.1 °F 36.6 °F 19.9 °F 41% 30.04 in 10.0 mi West 9.2 mph - N/A   Clear
3:53 AM 42.1 °F 35.7 °F 19.9 °F 41% 30.02 in 10.0 mi WSW 11.5 mph - N/A   Clear
4:53 AM 39.0 °F - 21.9 °F 50% 30.03 in 10.0 mi Calm Calm - N/A   Clear
5:53 AM 37.0 °F 32.4 °F 19.0 °F 48% 30.03 in 10.0 mi WSW 5.8 mph - N/A   Clear
6:53 AM 37.0 °F - 19.0 °F 48% 30.05 in 10.0 mi Calm Calm - N/A   Clear
7:53 AM 37.9 °F - 23.0 °F 55% 30.07 in 10.0 mi Calm Calm - N/A   Clear
8:53 AM 43.0 °F - 24.1 °F 47% 30.06 in 10.0 mi Calm Calm - N/A   Clear
9:53 AM - - - N/A% 30.10 in - North - - N/A   Unknown
10:53 AM 55.9 °F - 25.0 °F 30% 30.00 in 10.0 mi North - - N/A   Clear
11:53 AM 59.0 °F - 25.0 °F 27% 29.98 in 10.0 mi Calm Calm - N/A   Clear
12:53 PM 64.0 °F - 27.0 °F 25% 29.92 in 10.0 mi Variable 4.6 mph - N/A   Clear
1:53 PM 70.0 °F - 28.0 °F 21% 29.87 in 10.0 mi NE 6.9 mph - N/A   Clear
2:53 PM 70.0 °F - 25.0 °F 18% 29.85 in 10.0 mi North 11.5 mph - N/A   Clear
3:53 PM 72.0 °F - 21.9 °F 15% 29.83 in 10.0 mi North 8.1 mph - N/A   Clear
4:53 PM 71.1 °F - 23.0 °F 16% 29.83 in 10.0 mi NNE 12.7 mph - N/A   Clear
5:53 PM 71.1 °F - 21.0 °F 15% 29.82 in 10.0 mi North 8.1 mph - N/A   Clear
6:53 PM 69.1 °F - 19.9 °F 15% 29.82 in 10.0 mi NW 8.1 mph - N/A   Clear
7:53 PM 60.1 °F - 24.1 °F 25% 29.85 in 10.0 mi West 8.1 mph - N/A   Clear
8:53 PM 57.9 °F - 23.0 °F 26% 29.85 in 10.0 mi West 9.2 mph - N/A   Clear
9:53 PM 57.9 °F - 21.0 °F 24% 29.95 in 10.0 mi West 11.5 mph - N/A   Clear
10:53 PM 54.0 °F - 19.9 °F 26% 29.83 in 10.0 mi WNW 9.2 mph - N/A   Clear
11:53 PM 53.1 °F - 21.0 °F 29% 29.84 in 10.0 mi West 12.7 mph - N/A   Clear